WetterOnline ( https://www.wetteronline.de )

Wetter aktuell Allgäu (in 700m)

Aktuelles Wetter: Leutkirch-Herlazhofen (671m)

6-stündlich | Neueste Meldungen
Ortszeit Temperatur Wetter
Mi, 16.06. 14:00 26.7° C fast wolkenlos
Mi, 16.06. 8:00 15.9° C leicht bewölkt
Mi, 16.06. 2:00 11.7° C wolkig
Di, 15.06. 20:00 24.5° C leicht bewölkt
Di, 15.06. 14:00 24.7° C wolkenlos
Di, 15.06. 8:00 16.2° C wolkenlos
Di, 15.06. 2:00 10.0° C wolkenlos
Mo, 14.06. 20:00 22.5° C wolkenlos
Ortszeit Temperatur Wetter
Mi, 16.06. 17:00 27.2° C leicht bewölkt
Mi, 16.06. 16:50 27.2° C wolkig
Mi, 16.06. 16:40 27.0° C leicht bewölkt
Mi, 16.06. 16:30 27.0° C fast wolkenlos
Mi, 16.06. 16:20 27.0° C fast wolkenlos
Mi, 16.06. 16:10 27.1° C leicht bewölkt
Mi, 16.06. 16:00 26.9° C leicht bewölkt
Mi, 16.06. 15:30 27.0° C fast wolkenlos
Mi, 16.06. 15:00 27.3° C wolkenlos
Mi, 16.06. 14:30 26.8° C wolkenlos
Mi, 16.06. 14:00 26.7° C fast wolkenlos
Ortszeit Relative Feuchte Sichtweite
Mi, 16.06. 14:00 34% 45 km
Mi, 16.06. 8:00 77% 40 km
Mi, 16.06. 2:00 88% 55 km
Di, 15.06. 20:00 36% >70 km
Di, 15.06. 14:00 43% >70 km
Di, 15.06. 8:00 72% 50 km
Di, 15.06. 2:00 94% 30 km
Mo, 14.06. 20:00 43% >70 km
Ortszeit Relative Feuchte Sichtweite
Mi, 16.06. 17:00 30% 55 km
Mi, 16.06. 16:50 30% -
Mi, 16.06. 16:40 33% -
Mi, 16.06. 16:30 29% 65 km
Mi, 16.06. 16:20 29% -
Mi, 16.06. 16:10 34% -
Mi, 16.06. 16:00 41% 55 km
Mi, 16.06. 15:30 33% >70 km
Mi, 16.06. 15:00 37% 60 km
Mi, 16.06. 14:30 31% >70 km
Mi, 16.06. 14:00 34% 45 km
Ortszeit Niederschlagsmenge Niederschlagsart
Mi, 16.06. 14:00 0.0 l/m2 in 6 Std. -
Mi, 16.06. 8:00 0.0 l/m2 in 12 Std. -
Mi, 16.06. 2:00 0.0 l/m2 in 6 Std. -
Di, 15.06. 20:00 0.0 l/m2 in 12 Std. -
Di, 15.06. 14:00 0.0 l/m2 in 6 Std. -
Di, 15.06. 8:00 0.0 l/m2 in 12 Std. -
Di, 15.06. 2:00 0.0 l/m2 in 6 Std. -
Mo, 14.06. 20:00 0.0 l/m2 in 12 Std. -
Ortszeit Niederschlagsmenge Niederschlagsart
Mi, 16.06. 17:00 0.0 l/m2 in 1 Std. -
Mi, 16.06. 16:50 keine Meldung -
Mi, 16.06. 16:40 keine Meldung -
Mi, 16.06. 16:30 0.0 l/m2 in 1 Std. -
Mi, 16.06. 16:20 keine Meldung -
Mi, 16.06. 16:10 keine Meldung -
Mi, 16.06. 16:00 0.0 l/m2 in 1 Std. -
Mi, 16.06. 15:30 0.0 l/m2 in 1 Std. -
Mi, 16.06. 15:00 0.0 l/m2 in 1 Std. -
Mi, 16.06. 14:30 0.0 l/m2 in 1 Std. -
Mi, 16.06. 14:00 0.0 l/m2 in 1 Std. -
Ortszeit Stärke Spitze Richtung
km/h Bft. km/h Grad Sektor
Mi, 16.06. 14:00 9 2 20 60° NO
Mi, 16.06. 8:00 2 1 6 70° O
Mi, 16.06. 2:00 4 1 11 150° SO
Di, 15.06. 20:00 7 2 22 60° NO
Di, 15.06. 14:00 9 2 24 50° NO
Di, 15.06. 8:00 2 1 6 20° N
Di, 15.06. 2:00 4 1 11 110° O
Mo, 14.06. 20:00 7 2 25 40° NO
Ortszeit Stärke Spitze Richtung
km/h Bft. km/h Grad Sektor
Mi, 16.06. 17:00 7 2 18 360° N
Mi, 16.06. 16:50 7 2 - 360° N
Mi, 16.06. 16:40 7 2 - 10° N
Mi, 16.06. 16:30 9 2 17 50° NO
Mi, 16.06. 16:20 9 2 - 50° NO
Mi, 16.06. 16:10 7 2 - 20° N
Mi, 16.06. 16:00 11 2 19 40° NO
Mi, 16.06. 15:30 9 2 19 20° N
Mi, 16.06. 15:00 7 2 25 40° NO
Mi, 16.06. 14:30 11 2 25 60° NO
Mi, 16.06. 14:00 9 2 19 60° NO
Ortszeit Untergrenze Bedeckung Gattung
total tief tief mittel hoch
Mi, 16.06. 14:00 7800 m 2/8 0/8 - - -
Mi, 16.06. 8:00 7500 m 6/8 0/8 - - -
Mi, 16.06. 2:00 8700 m 8/8 0/8 - - -
Di, 15.06. 20:00 10500 m 5/8 0/8 - - -
Di, 15.06. 14:00 - 0/8 0/8 - - -
Di, 15.06. 8:00 - 0/8 0/8 - - -
Di, 15.06. 2:00 - 0/8 0/8 - - -
Mo, 14.06. 20:00 - 0/8 0/8 - - -
Ortszeit Bedeckungsgrad in Achtel und Wolkenuntergrenze
Mi, 16.06. 17:00 4(9000m) 7(9000m) 7(9000m)
Mi, 16.06. 16:50 4(9000m) 7(9000m) 7(9000m)
Mi, 16.06. 16:40 5(9000m) 5(9000m)
Mi, 16.06. 16:30 1(9000m)
Mi, 16.06. 16:20 1(9000m)
Mi, 16.06. 16:10 1(9000m) 3(9000m)
Mi, 16.06. 16:00 3(9000m) 5(9000m)
Mi, 16.06. 15:30 1(9000m)
Mi, 16.06. 15:00 keine Wolken
Mi, 16.06. 14:30 keine Wolken
Mi, 16.06. 14:00 2(7800m)
Ortszeit Luftdruck NN (hPa) Tendenz (hPa in 3 Std.)
Mi, 16.06. 14:00 1012 - 0,8
Mi, 16.06. 8:00 1017 - 0,2
Mi, 16.06. 2:00 1019 - 0,5
Di, 15.06. 20:00 1016 - 0,4
Di, 15.06. 14:00 1016 - 0,3
Di, 15.06. 8:00 1019 + 0,3
Di, 15.06. 2:00 1021 - 0,1
Mo, 14.06. 20:00 1017 - 0,1
Ortszeit Luftdruck NN (hPa) Tendenz (hPa in 3 Std.)
Mi, 16.06. 17:00 1012 - 0,6
Mi, 16.06. 16:50 1012 keine Meldung
Mi, 16.06. 16:40 1012 keine Meldung
Mi, 16.06. 16:30 1012 - 0,7
Mi, 16.06. 16:20 1012 keine Meldung
Mi, 16.06. 16:10 1012 keine Meldung
Mi, 16.06. 16:00 1012 - 1,1
Mi, 16.06. 15:30 1012 - 1,1
Mi, 16.06. 15:00 1012 - 1,0
Mi, 16.06. 14:30 1012 - 0,9
Mi, 16.06. 14:00 1012 - 0,8
Ortszeit Schneehöhe (cm)
Mi, 16.06. 14:00 -
Mi, 16.06. 8:00 -
Mi, 16.06. 2:00 -
Di, 15.06. 20:00 -
Di, 15.06. 14:00 -
Di, 15.06. 8:00 -
Di, 15.06. 2:00 -
Mo, 14.06. 20:00 -
Ortszeit Schneehöhe (cm)
Mi, 16.06. 17:00 -
Mi, 16.06. 16:50 -
Mi, 16.06. 16:40 -
Mi, 16.06. 16:30 -
Mi, 16.06. 16:20 -
Mi, 16.06. 16:10 -
Mi, 16.06. 16:00 -
Mi, 16.06. 15:30 -
Mi, 16.06. 15:00 -
Mi, 16.06. 14:30 -
Mi, 16.06. 14:00 -
Link zu dieser Seite / Seite empfehlen

Das Wetter in ...